"Pseudo-MPEC" for CC92702

Created 2024 Nov 13 23:31:04 UT using Find_Orb

Click here for an explanation of pseudo-MPECs

 
 Astrometry: 
     CC92702*1C2024 11 11.46909006 17 00.172+46 48 16.88   ~BBCH 21.68GVNEOCPG96
     CC92702 1C2024 11 11.47430606 17 00.143+46 48 02.66   ~BBCH 21.62GVNEOCPG96
     CC92702 1C2024 11 11.47951206 17 00.121+46 47 48.70   ~BBCH 20.91GVNEOCPG96
     CC92702 1C2024 11 11.48472206 17 00.056+46 47 34.91   ~BBCH 20.77GVNEOCPG96
     CC92702 KC2024 11 11.52422806 16 59.890+46 45 47.70   ~BBDH 21.26GVNEOCPI52
     CC92702 KC2024 11 11.52810706 16 59.910+46 45 36.80   ~BBDH       VNEOCPI52
     CC92702 1C2024 11 11.61639206 17 00.462+46 41 45.01   ~BBLl 21.57GVNEOCPT12
     CC92702 1C2024 11 11.61943206 17 00.441+46 41 36.74   ~BBLl 21.63GVNEOCPT12
     CC92702 KC2024 11 12.34799106 17 02.39 +46 08 29.6    ~BC92 22.3 GVNEOCPH21
     CC92702 KC2024 11 12.35088206 17 02.35 +46 08 21.7    ~BC92 21.5 GVNEOCPH21
     CC92702 KC2024 11 12.35406106 17 02.34 +46 08 12.9    ~BC92 21.6 GVNEOCPH21
     CC92702 KC2024 11 12.50655306 17 01.510+46 01 12.00   ~BCD2 21.38GVNEOCPI52
     CC92702 KC2024 11 12.51712006 17 01.390+46 00 42.20   ~BCD2 21.52GVNEOCPI52
     CC92702 KC2024 11 12.52237506 17 01.350+46 00 27.20   ~BCD2       VNEOCPI52

Station data:
(G96) Mt. Lemmon Survey  (N32.442729 W110.788720)  US/Arizona.  Observer E.
   J. Christensen. 1.5-m reflector + 10K CCD.
(H21) Astronomical Research Observatory, Westfield  (N39.483054 W87.968270)
   US/Illinois.  Observer R. Holmes. Measurers S. Foglia, L. Buzzi, T.
   Linder, R. Holmes. 0.76-m f/3.0 astrograph + CCD0.81-m f/4.0 astrograph +
   CCD0.61-m f/4.5 astrograph + CCD0.40-m f/5.32 astrograph + CCD.
(I52) Steward Observatory, Mt. Lemmon Station  (N32.442570 W110.788920)
   US/Arizona.  Observers T. A. Pruyne, B. M. Africano, E. J. Christensen, G.
   A. Farneth, D. C. Fuls, A. R. Gibbs, A. D. Grauer, H. Gröller, J. A.
   Johnson, R. A. Kowalski, S. M. Larson, G. J. Leonard, D. Rankin, R. L.
   Seaman, F. C. Shelly, K. W. Wierzchoś. 1.0-m prime focus + CCD.
(T12) Mauna Kea-UH/Tholen NEO Follow-Up (2.24-m)  (N19.822991 W155.469434)
   US/Hawaii.  Observer R. Weryk. 2.24-m f/10.1 University of Hawaii
   reflector.

Orbital elements:  CC92702
   Perihelion 2024 Nov 24.00721 +/- 14.3 TT =  0:10:22 (JD 2460638.50721)
Epoch 2024 Nov 12.0 TT = JDT 2460626.5   Earth MOID: 0.3949      AutoNEOCP
M 357.12052907 +/- 3.2              (J2000 ecliptic)
n   0.23981187 +/- 0.0521           Peri.  172.71125 +/- 11
a   2.56579682 +/- 0.371            Node   257.25166 +/- 0.7
e   0.4630694 +/- 0.066             Incl.   31.20839 +/- 3.5
P   4.10992                H 21.15  G  0.15   U 10.8  SR
q 1.37765481 +/- 0.0282    Q 3.75393883 +/- 0.686
From 14 observations 2024 Nov. 11-12 (25.3 hr); mean residual 0".19
Residuals in arcseconds: 
241111 G96  .26+  .09+    241111 I52  .09-  .42-    241112 H21  .03-  .18+    
241111 G96  .20+  .10-    241111 T12  .02+  .01+    241112 I52  .26+  .01+    
241111 G96  .20+  .03-    241111 T12  .02-  .00     241112 I52  .03-  .13-    
241111 G96  .25-  .22+    241112 H21  .04-  .17+    241112 I52  .02+  .37-    
241111 I52  .42-  .06-    241112 H21  .21-  .23+    

Ephemerides (geocentric):
Date (UTC) HH   RA             Dec           delta  r     elong  mag " sig PA
---- --------  ------------   ------------  ------ ------ -----  --- --------
2024 11 14 00  06 16 54.971   +44 50 22.50  .49535 1.3813 134.2 21.7 22.7   5
2024 11 14 01  06 16 54.611   +44 48 20.89  .49507 1.3812 134.3 21.7 23.8   5
2024 11 14 02  06 16 54.242   +44 46 19.11  .49480 1.3812 134.3 21.7 24.8   5
2024 11 14 03  06 16 53.864   +44 44 17.16  .49452 1.3812 134.4 21.6 25.9   5
2024 11 14 04  06 16 53.478   +44 42 15.04  .49424 1.3811 134.4 21.6 27.0   5
2024 11 14 05  06 16 53.083   +44 40 12.75  .49397 1.3811 134.5 21.6 28.2   5
2024 11 14 06  06 16 52.680   +44 38 10.28  .49369 1.3811 134.5 21.6 29.3   5
2024 11 14 07  06 16 52.268   +44 36 07.64  .49342 1.3811 134.6 21.6 30.5   5
2024 11 14 08  06 16 51.848   +44 34 04.84  .49314 1.3810 134.6 21.6 31.7   5
2024 11 14 09  06 16 51.419   +44 32 01.85  .49287 1.3810 134.7 21.6 32.9   5
2024 11 14 10  06 16 50.982   +44 29 58.70  .49259 1.3810 134.7 21.6 34.2   5
2024 11 14 11  06 16 50.536   +44 27 55.38  .49232 1.3809 134.8 21.6 35.5   5
2024 11 14 12  06 16 50.082   +44 25 51.88  .49204 1.3809 134.8 21.6 36.8   5
2024 11 14 13  06 16 49.619   +44 23 48.21  .49177 1.3809 134.9 21.6 38.1   5
2024 11 14 14  06 16 49.148   +44 21 44.37  .49150 1.3809 134.9 21.6 39.4   5
2024 11 14 15  06 16 48.668   +44 19 40.36  .49122 1.3808 135.0 21.6 40.8   5
2024 11 14 16  06 16 48.180   +44 17 36.17  .49095 1.3808 135.0 21.6 42.2   5
2024 11 14 17  06 16 47.684   +44 15 31.81  .49068 1.3808 135.1 21.6 43.6   5
2024 11 14 18  06 16 47.179   +44 13 27.28  .49041 1.3807 135.1 21.6 45.1   5
2024 11 14 19  06 16 46.665   +44 11 22.57  .49014 1.3807 135.2 21.6 46.5   5
2024 11 14 20  06 16 46.143   +44 09 17.69  .48986 1.3807 135.2 21.6 48.0   5
2024 11 14 21  06 16 45.613   +44 07 12.64  .48959 1.3807 135.3 21.6 49.5   5
2024 11 14 22  06 16 45.074   +44 05 07.42  .48932 1.3806 135.3 21.6 51.1   5
2024 11 14 23  06 16 44.527   +44 03 02.02  .48905 1.3806 135.4 21.6 52.7   5
2024 11 15 00  06 16 43.972   +44 00 56.45  .48878 1.3806 135.4 21.6 54.3   5
2024 11 15 01  06 16 43.408   +43 58 50.70  .48851 1.3806 135.5 21.6 55.9   5
2024 11 15 02  06 16 42.835   +43 56 44.79  .48824 1.3805 135.5 21.6 57.5   5
2024 11 15 03  06 16 42.255   +43 54 38.69  .48797 1.3805 135.6 21.6 59.2   5
2024 11 15 04  06 16 41.666   +43 52 32.43  .48771 1.3805 135.6 21.6 60.9   5
2024 11 15 05  06 16 41.068   +43 50 25.99  .48744 1.3804 135.7 21.6 62.6   5
2024 11 15 06  06 16 40.463   +43 48 19.38  .48717 1.3804 135.7 21.6 64.4   5
2024 11 15 07  06 16 39.849   +43 46 12.59  .48690 1.3804 135.8 21.6 66.1   5
2024 11 15 08  06 16 39.226   +43 44 05.63  .48663 1.3804 135.8 21.6 67.9   5
2024 11 15 09  06 16 38.596   +43 41 58.49  .48637 1.3803 135.9 21.6 69.8   5
2024 11 15 10  06 16 37.957   +43 39 51.18  .48610 1.3803 135.9 21.6 71.6   5
2024 11 15 11  06 16 37.309   +43 37 43.70  .48583 1.3803 136.0 21.6 73.5   5
2024 11 15 12  06 16 36.654   +43 35 36.04  .48557 1.3803 136.0 21.6 75.4   5
2024 11 15 13  06 16 35.990   +43 33 28.21  .48530 1.3802 136.1 21.6 77.3   5
2024 11 15 14  06 16 35.318   +43 31 20.20  .48504 1.3802 136.1 21.6 79.3   5
2024 11 15 15  06 16 34.637   +43 29 12.02  .48477 1.3802 136.2 21.6 81.3   5
2024 11 15 16  06 16 33.948   +43 27 03.66  .48451 1.3802 136.2 21.6 83.3   5
2024 11 15 17  06 16 33.251   +43 24 55.13  .48424 1.3801 136.3 21.6 85.3   5
2024 11 15 18  06 16 32.546   +43 22 46.42  .48398 1.3801 136.3 21.6 87.4   5
2024 11 15 19  06 16 31.833   +43 20 37.54  .48371 1.3801 136.4 21.6 89.4   5
2024 11 15 20  06 16 31.111   +43 18 28.48  .48345 1.3801 136.4 21.6 91.6   4
2024 11 15 21  06 16 30.381   +43 16 19.25  .48319 1.3800 136.5 21.6 93.7   4
2024 11 15 22  06 16 29.643   +43 14 09.84  .48292 1.3800 136.5 21.6 95.9   4
2024 11 15 23  06 16 28.897   +43 12 00.26  .48266 1.3800 136.6 21.6 98.1   4